Fort Drum, NY

12:50 AM EDT on June 27, 2017 (GMT -0400)
Wheeler-Sack Army Air Field

Weather History for KGTB - June, 2013

Change the Weather History Date:

Thursday, June 20, 2013

  Actual Average Record
Temperature  
Mean Temperature 59 °F -  
Max Temperature 73 °F 74 °F 88 °F (2016)
Min Temperature 45 °F 54 °F 44 °F (2003)
Degree Days  
Heating Degree Days 6    
Growing Degree Days 9 (Base 50)    
Moisture  
Dew Point 44 °F    
Average Humidity 61    
Maximum Humidity 98    
Minimum Humidity 33    
Precipitation  
Precipitation 0.00 in - - ()
Sea Level Pressure  
Sea Level Pressure 30.23 in    
Wind  
Wind Speed 4 mph (SSW)    
Max Wind Speed 9 mph    
Max Gust Speed -    
Visibility 10 miles    
Events      
Averages and records for this station are not official NWS values.
T = Trace of Precipitation, MM = Missing Value Source: NWS Daily Summary

Daily Weather History Graph

Daily Weather History Graph

Search for Another Location

Airport or City:

Trip Planner

Search our weather history database for the weather conditions in past years. The results will help you decide how hot, cold, wet, or windy it might be!

Date:

Astronomy

Jun. 20, 2013 Rise Set
Actual Time 5:19 AM EDT 8:49 PM EDT
Civil Twilight 4:43 AM EDT 9:25 PM EDT
Nautical Twilight 3:55 AM EDT 10:13 PM EDT
Astronomical Twilight 2:54 AM EDT 11:15 PM EDT
Moon 5:45 PM EDT (6/20) 2:49 AM EDT (6/20)
Length of Visible Light 16h 42m
Length of Day
15h 29m
Waxing Gibbous, 89% of the Moon is Illuminated
Jun 20
Waxing Gibbous
Jun 23
Full
Jun 30
Last Quarter
Jul 8
New
Jul 15
First Quarter

Hourly Weather History & Observations

Time (EDT) Temp. Windchill Dew Point Humidity Pressure Visibility Wind Dir Wind Speed Gust Speed Precip Events Conditions
12:58 AM 47.3 °F - 46.6 °F 97% 30.21 in 10.0 mi South 3.5 mph - N/A   Clear
1:58 AM 47.7 °F - 46.8 °F 97% 30.22 in 10.0 mi SSE 4.6 mph - N/A   Clear
2:58 AM 46.4 °F - 45.9 °F 98% 30.22 in 10.0 mi SE 2.3 mph - N/A   Clear
3:58 AM 46.2 °F 44.1 °F 45.1 °F 96% 30.21 in 10.0 mi SSE 4.6 mph - N/A   Clear
4:58 AM 45.5 °F 44.2 °F 45.0 °F 98% 30.23 in 10.0 mi SSE 3.5 mph - N/A   Clear
5:58 AM 46.2 °F 45.0 °F 45.1 °F 96% 30.24 in 10.0 mi SSE 3.5 mph - N/A   Clear
6:58 AM 49.3 °F - 45.9 °F 88% 30.26 in 10.0 mi SSE 4.6 mph - N/A   Clear
7:58 AM 54.0 °F - 47.1 °F 78% 30.27 in 10.0 mi SE 4.6 mph - N/A   Clear
8:58 AM 60.8 °F - 47.5 °F 62% 30.27 in 10.0 mi SSE 4.6 mph - N/A   Clear
9:58 AM 65.1 °F - 42.3 °F 43% 30.27 in 10.0 mi NW 3.5 mph - N/A   Clear
10:58 AM 66.7 °F - 43.0 °F 42% 30.27 in 10.0 mi West 4.6 mph - N/A   Clear
11:58 AM 70.0 °F - 43.7 °F 39% 30.26 in 10.0 mi Variable 6.9 mph - N/A   Clear
12:58 PM 70.2 °F - 43.9 °F 39% 30.25 in 10.0 mi Variable 5.8 mph - N/A   Clear
1:58 PM 71.8 °F - 42.3 °F 34% 30.23 in 10.0 mi Variable 1.2 mph - N/A   Clear
2:58 PM 73.0 °F - 44.4 °F 36% 30.23 in 10.0 mi NNW 9.2 mph - N/A   Clear
3:58 PM 72.5 °F - 44.2 °F 36% 30.22 in 10.0 mi Variable 4.6 mph - N/A   Clear
4:58 PM 72.3 °F - 46.6 °F 40% 30.22 in 10.0 mi WSW 5.8 mph - N/A   Clear
5:58 PM 71.2 °F - 41.4 °F 34% 30.22 in 10.0 mi West 8.1 mph - N/A   Clear
6:58 PM 69.8 °F - 39.7 °F 33% 30.22 in 10.0 mi West 5.8 mph - N/A   Clear
7:58 PM 67.1 °F - 41.7 °F 40% 30.20 in 10.0 mi West 5.8 mph - N/A   Clear
8:58 PM 61.3 °F - 38.3 °F 43% 30.22 in 10.0 mi West 3.5 mph - N/A   Clear
9:58 PM 56.3 °F - 40.1 °F 55% 30.22 in 10.0 mi WNW 3.5 mph - N/A   Clear
10:58 PM 52.9 °F - 46.2 °F 78% 30.22 in 10.0 mi SW 1.2 mph - N/A   Clear
11:58 PM 52.9 °F - 43.7 °F 71% 30.23 in 10.0 mi ESE 2.3 mph - N/A   Clear